TAP1863 LPPT-LPPD

Flight info

Callsign TAP1863
Flight time N/A
Altitude 33000
Route ZIFOG DCT TABAX DCT KOMUT/M078F330 DCT 38N020W DCT BEKUN DCT OMOBI
Aircraft A321/M-SDE3FGHIRWY/LB1

Departure

Time 2026-05-07 16:21
Airport Lisbon Humberto Delgado Airport (LPPT)

Arrival

Time N/A
Airport João Paulo II Airport (LPPD)
Time Latitude Longitude Altitude Speed Heading
2026-05-07 16:00 38.78025 -9.12921 331 ft 0 kts 304°
2026-05-07 16:08 38.78024 -9.12919 331 ft 2 kts 304°
2026-05-07 16:08 38.78009 -9.12892 327 ft 4 kts 302°
2026-05-07 16:09 38.77999 -9.12862 326 ft 4 kts 268°
2026-05-07 16:09 38.78008 -9.12833 326 ft 4 kts 220°
2026-05-07 16:09 38.78017 -9.12824 327 ft 1 kts 213°
2026-05-07 16:09 38.78018 -9.12823 327 ft 0 kts 213°
2026-05-07 16:12 38.78005 -9.12834 328 ft 4 kts 213°
2026-05-07 16:13 38.77969 -9.12863 328 ft 8 kts 213°
2026-05-07 16:13 38.77909 -9.12914 331 ft 13 kts 213°
2026-05-07 16:13 38.77822 -9.12986 328 ft 17 kts 213°
2026-05-07 16:13 38.77769 -9.13088 335 ft 10 kts 258°
2026-05-07 16:14 38.77756 -9.13182 337 ft 12 kts 259°
2026-05-07 16:14 38.77737 -9.13301 335 ft 15 kts 257°
2026-05-07 16:14 38.77679 -9.13377 345 ft 11 kts 205°
2026-05-07 16:14 38.77613 -9.13411 350 ft 12 kts 201°
2026-05-07 16:15 38.77528 -9.13456 345 ft 13 kts 205°
2026-05-07 16:15 38.77450 -9.13525 353 ft 14 kts 207°
2026-05-07 16:15 38.77356 -9.13519 352 ft 14 kts 168°
2026-05-07 16:15 38.77288 -9.13562 348 ft 11 kts 245°
2026-05-07 16:16 38.77271 -9.13661 351 ft 14 kts 258°
2026-05-07 16:16 38.77246 -9.13806 359 ft 16 kts 249°
2026-05-07 16:16 38.77160 -9.13884 355 ft 15 kts 203°
2026-05-07 16:16 38.77062 -9.13938 354 ft 16 kts 203°
2026-05-07 16:17 38.76954 -9.13998 353 ft 18 kts 204°
2026-05-07 16:17 38.76833 -9.14060 345 ft 19 kts 199°
2026-05-07 16:17 38.76728 -9.14114 352 ft 15 kts 202°
2026-05-07 16:17 38.76629 -9.14167 337 ft 16 kts 202°
2026-05-07 16:18 38.76606 -9.14280 335 ft 16 kts 291°
2026-05-07 16:18 38.76648 -9.14378 334 ft 6 kts 346°
2026-05-07 16:18 38.76678 -9.14370 334 ft 3 kts 18°
2026-05-07 16:18 38.76685 -9.14366 335 ft 0 kts 22°
2026-05-07 16:20 38.76733 -9.14341 335 ft 32 kts 22°
2026-05-07 16:20 38.77156 -9.14116 358 ft 97 kts 22°
2026-05-07 16:20 38.77952 -9.13695 366 ft 148 kts 22°
2026-05-07 16:21 38.79025 -9.13113 436 ft 181 kts 18°
2026-05-07 16:21 38.80168 -9.12490 1065 ft 182 kts 16°
2026-05-07 16:21 38.81334 -9.11855 1704 ft 184 kts 18°
2026-05-07 16:21 38.82507 -9.11007 1971 ft 204 kts 26°
2026-05-07 16:22 38.83794 -9.10023 2172 ft 227 kts 25°
2026-05-07 16:22 38.85210 -9.08931 2470 ft 246 kts 27°
2026-05-07 16:22 38.86695 -9.07777 2939 ft 257 kts 29°
2026-05-07 16:22 38.88265 -9.06565 3546 ft 266 kts 25°
2026-05-07 16:23 38.90020 -9.05814 4164 ft 270 kts
2026-05-07 16:23 38.91886 -9.06057 4829 ft 274 kts 339°
2026-05-07 16:23 38.93511 -9.07319 5541 ft 276 kts 314°
2026-05-07 16:23 38.94564 -9.09373 6228 ft 279 kts 285°
2026-05-07 16:24 38.94802 -9.11817 6902 ft 277 kts 261°
2026-05-07 16:24 38.94471 -9.14258 7645 ft 278 kts 256°
2026-05-07 16:24 38.94121 -9.16669 8416 ft 279 kts 257°
2026-05-07 16:24 38.93766 -9.19133 9167 ft 281 kts 256°
2026-05-07 16:25 38.93412 -9.21604 9941 ft 283 kts 256°
2026-05-07 16:25 38.93048 -9.24148 10248 ft 300 kts 256°
2026-05-07 16:25 38.92667 -9.26883 10375 ft 322 kts 257°
2026-05-07 16:25 38.92269 -9.29805 10506 ft 342 kts 258°
2026-05-07 16:26 38.91856 -9.32861 10906 ft 351 kts 258°
2026-05-07 16:26 38.91442 -9.35964 11474 ft 354 kts 257°
2026-05-07 16:26 38.91023 -9.39099 12048 ft 358 kts 257°
2026-05-07 16:26 38.90740 -9.41192 12425 ft 361 kts 258°
2026-05-07 16:27 38.90163 -9.45430 13166 ft 366 kts 257°
2026-05-07 16:27 38.89722 -9.48660 13767 ft 369 kts 258°
2026-05-07 16:27 38.89274 -9.51914 14283 ft 372 kts 258°
2026-05-07 16:27 38.88822 -9.55189 14806 ft 374 kts 258°
2026-05-07 16:28 38.88366 -9.58484 15318 ft 376 kts 258°
2026-05-07 16:28 38.87910 -9.61793 15830 ft 378 kts 258°
2026-05-07 16:28 38.87446 -9.65126 16331 ft 380 kts 258°
2026-05-07 16:28 38.86979 -9.68471 16831 ft 382 kts 258°
2026-05-07 16:29 38.86517 -9.71791 17295 ft 384 kts 258°
2026-05-07 16:29 38.86049 -9.75176 17748 ft 386 kts 258°
2026-05-07 16:29 38.85576 -9.78575 18185 ft 388 kts 258°
2026-05-07 16:29 38.85099 -9.81989 18557 ft 390 kts 258°
2026-05-07 16:30 38.84616 -9.85423 18934 ft 392 kts 257°
2026-05-07 16:30 38.84129 -9.88869 19292 ft 394 kts 257°
2026-05-07 16:30 38.83641 -9.92330 19679 ft 395 kts 257°
2026-05-07 16:30 38.83149 -9.95799 20058 ft 396 kts 257°
2026-05-07 16:31 38.82656 -9.99274 20451 ft 397 kts 257°
2026-05-07 16:31 38.82169 -10.02709 20845 ft 398 kts 257°
2026-05-07 16:31 38.81671 -10.06202 21252 ft 399 kts 257°
2026-05-07 16:31 38.81170 -10.09701 21661 ft 400 kts 257°
2026-05-07 16:32 38.80667 -10.13207 22070 ft 401 kts 257°
2026-05-07 16:32 38.80164 -10.16727 22482 ft 402 kts 257°
2026-05-07 16:32 38.79658 -10.20255 22892 ft 403 kts 257°
2026-05-07 16:32 38.79149 -10.23788 23326 ft 404 kts 257°
2026-05-07 16:33 38.78636 -10.27334 23688 ft 405 kts 257°
2026-05-07 16:33 38.78120 -10.30884 23992 ft 406 kts 257°
2026-05-07 16:33 38.77601 -10.34456 24296 ft 408 kts 257°
2026-05-07 16:33 38.77089 -10.37991 24590 ft 410 kts 257°
2026-05-07 16:34 38.76567 -10.41586 24893 ft 411 kts 257°
2026-05-07 16:34 38.76042 -10.45191 25174 ft 413 kts 257°
2026-05-07 16:34 38.75513 -10.48814 25457 ft 415 kts 257°
2026-05-07 16:34 38.74982 -10.52454 25749 ft 416 kts 257°
2026-05-07 16:35 38.74447 -10.56103 26037 ft 418 kts 257°
2026-05-07 16:35 38.73906 -10.59772 26338 ft 420 kts 256°
2026-05-07 16:35 38.73359 -10.63443 26616 ft 421 kts 256°
2026-05-07 16:35 38.72808 -10.67139 26891 ft 423 kts 256°
2026-05-07 16:36 38.72265 -10.70795 27157 ft 424 kts 257°
2026-05-07 16:36 38.71714 -10.74515 27425 ft 426 kts 257°
2026-05-07 16:36 38.71161 -10.78249 27676 ft 428 kts 257°
2026-05-07 16:36 38.70602 -10.81995 27915 ft 429 kts 257°
2026-05-07 16:37 38.70041 -10.85752 28139 ft 431 kts 257°
2026-05-07 16:37 38.69476 -10.89523 28362 ft 432 kts 257°
2026-05-07 16:37 38.68904 -10.93302 28564 ft 433 kts 257°
2026-05-07 16:37 38.68329 -10.97092 28807 ft 433 kts 256°
2026-05-07 16:38 38.67979 -10.99393 28948 ft 433 kts 256°
2026-05-07 16:38 38.67405 -11.03172 29220 ft 432 kts 256°
2026-05-07 16:38 38.66832 -11.06942 29504 ft 431 kts 256°
2026-05-07 16:38 38.66262 -11.10700 29772 ft 430 kts 256°
2026-05-07 16:39 38.65692 -11.14447 30024 ft 429 kts 256°
2026-05-07 16:39 38.65121 -11.18188 30255 ft 428 kts 256°
2026-05-07 16:39 38.64553 -11.21909 30499 ft 426 kts 256°
2026-05-07 16:39 38.63988 -11.25630 30750 ft 425 kts 256°
2026-05-07 16:40 38.63430 -11.29282 31005 ft 423 kts 256°
2026-05-07 16:40 38.62863 -11.32964 31284 ft 421 kts 255°
2026-05-07 16:40 38.62297 -11.36625 31557 ft 419 kts 255°
2026-05-07 16:40 38.61732 -11.40279 31828 ft 418 kts 255°
2026-05-07 16:41 38.61171 -11.43912 32085 ft 416 kts 255°
2026-05-07 16:41 38.60609 -11.47539 32343 ft 415 kts 255°
2026-05-07 16:41 38.60045 -11.51148 32604 ft 413 kts 255°
2026-05-07 16:41 38.59484 -11.54742 32852 ft 412 kts 255°
2026-05-07 16:42 38.58922 -11.58321 32942 ft 408 kts 255°
2026-05-07 16:42 38.57818 -11.65386 32948 ft 403 kts 255°
2026-05-07 16:43 38.56722 -11.72357 32946 ft 403 kts 255°
2026-05-07 16:43 38.55610 -11.79364 32948 ft 403 kts 255°
2026-05-07 16:44 38.54494 -11.86375 32947 ft 403 kts 255°
2026-05-07 16:44 38.53378 -11.93387 32948 ft 403 kts 255°
2026-05-07 16:45 38.52268 -12.00340 32950 ft 402 kts 255°
2026-05-07 16:45 38.51149 -12.07337 32957 ft 402 kts 255°
2026-05-07 16:46 38.50020 -12.14334 32940 ft 403 kts 254°
2026-05-07 16:46 38.48878 -12.21338 32941 ft 403 kts 254°
2026-05-07 16:47 38.47745 -12.28299 32934 ft 403 kts 254°
2026-05-07 16:47 38.46603 -12.35306 32921 ft 403 kts 254°
2026-05-07 16:48 38.45459 -12.42312 32955 ft 403 kts 254°
2026-05-07 16:48 38.44302 -12.49325 32943 ft 404 kts 253°
2026-05-07 16:49 38.43140 -12.56331 32939 ft 404 kts 253°
2026-05-07 16:49 38.41985 -12.63290 32938 ft 404 kts 253°
2026-05-07 16:50 38.40820 -12.70299 32936 ft 404 kts 253°
2026-05-07 16:50 38.39648 -12.77306 32959 ft 404 kts 253°
2026-05-07 16:51 38.38670 -12.83124 32954 ft 404 kts 253°
2026-05-07 16:51 38.37301 -12.91271 32950 ft 404 kts 253°
2026-05-07 16:52 38.36122 -12.98279 32949 ft 405 kts 253°
2026-05-07 16:52 38.34933 -13.05284 32947 ft 404 kts 253°
2026-05-07 16:53 38.33943 -13.11107 32948 ft 404 kts 253°
2026-05-07 16:53 38.32748 -13.18102 32971 ft 404 kts 252°
2026-05-07 16:54 38.31350 -13.26225 32967 ft 404 kts 252°
2026-05-07 16:54 38.30338 -13.32076 32962 ft 404 kts 252°
2026-05-07 16:55 38.28939 -13.40184 32951 ft 403 kts 252°
2026-05-07 16:55 38.27936 -13.45974 32948 ft 403 kts 252°
2026-05-07 16:56 38.26725 -13.52944 32976 ft 403 kts 252°
2026-05-07 16:56 38.24690 -13.64521 32963 ft 403 kts 252°
2026-05-07 16:57 38.23670 -13.70305 32956 ft 403 kts 252°
2026-05-07 16:57 38.22444 -13.77264 32951 ft 403 kts 252°
2026-05-07 16:58 38.21216 -13.84218 32946 ft 403 kts 252°
2026-05-07 16:58 38.19980 -13.91163 32973 ft 402 kts 251°
2026-05-07 16:59 38.18741 -13.98043 32957 ft 402 kts 251°
2026-05-07 16:59 38.17498 -14.04972 32952 ft 402 kts 251°
2026-05-07 17:00 38.16257 -14.11895 32947 ft 402 kts 251°
2026-05-07 17:00 38.15006 -14.18812 32948 ft 402 kts 251°
2026-05-07 17:01 38.13764 -14.25688 32962 ft 402 kts 251°
2026-05-07 17:01 38.12507 -14.32615 32940 ft 403 kts 251°
2026-05-07 17:02 38.11236 -14.39537 32931 ft 403 kts 251°
2026-05-07 17:02 38.09965 -14.46461 32926 ft 403 kts 251°
2026-05-07 17:03 38.08693 -14.53383 32922 ft 403 kts 250°
2026-05-07 17:03 38.07424 -14.60261 32965 ft 403 kts 251°
2026-05-07 17:04 38.06149 -14.67179 32957 ft 402 kts 251°
2026-05-07 17:04 38.04867 -14.74091 32949 ft 402 kts 251°
2026-05-07 17:05 38.03575 -14.80994 32940 ft 402 kts 250°
2026-05-07 17:05 38.02286 -14.87854 32937 ft 403 kts 250°
2026-05-07 17:06 38.00987 -14.94768 33039 ft 405 kts 250°
2026-05-07 17:06 38.00350 -14.98261 32933 ft 409 kts 253°
2026-05-07 17:06 38.00053 -15.01880 32920 ft 417 kts 262°
2026-05-07 17:07 38.00203 -15.09285 32911 ft 421 kts 264°
2026-05-07 17:07 38.00352 -15.16663 32909 ft 422 kts 264°
2026-05-07 17:08 38.00496 -15.24106 32909 ft 423 kts 264°
2026-05-07 17:08 38.00641 -15.31569 32914 ft 423 kts 264°
2026-05-07 17:09 38.00775 -15.39030 32907 ft 424 kts 264°
2026-05-07 17:09 38.00899 -15.46449 32915 ft 424 kts 264°
2026-05-07 17:10 38.01020 -15.53923 32915 ft 424 kts 264°
2026-05-07 17:10 38.01143 -15.61400 32916 ft 424 kts 264°
2026-05-07 17:11 38.01266 -15.68872 32923 ft 424 kts 264°
2026-05-07 17:11 38.01383 -15.76359 32905 ft 425 kts 264°
2026-05-07 17:12 38.01483 -15.83800 32900 ft 425 kts 264°
2026-05-07 17:12 38.01587 -15.91309 32900 ft 426 kts 264°
2026-05-07 17:13 38.01687 -15.98823 32900 ft 427 kts 264°
2026-05-07 17:13 38.01781 -16.06356 32912 ft 428 kts 265°
2026-05-07 17:14 38.01863 -16.13852 32902 ft 428 kts 265°
2026-05-07 17:14 38.01947 -16.21409 32892 ft 429 kts 265°
2026-05-07 17:15 38.02032 -16.28969 32890 ft 429 kts 265°
2026-05-07 17:15 38.02114 -16.36534 32910 ft 429 kts 266°
2026-05-07 17:16 38.02178 -16.44047 32903 ft 429 kts 266°
2026-05-07 17:16 38.02240 -16.51615 32895 ft 429 kts 266°
2026-05-07 17:17 38.02298 -16.59185 32892 ft 429 kts 266°
2026-05-07 17:17 38.02359 -16.66750 32885 ft 429 kts 266°
2026-05-07 17:18 38.02417 -16.74317 32899 ft 429 kts 267°
2026-05-07 17:18 38.02459 -16.81825 32892 ft 429 kts 267°
2026-05-07 17:19 38.02500 -16.89386 32891 ft 428 kts 267°
2026-05-07 17:19 38.02539 -16.96941 32884 ft 428 kts 267°
2026-05-07 17:20 38.02578 -17.04494 32878 ft 428 kts 267°
2026-05-07 17:20 38.02599 -17.11979 32888 ft 427 kts 268°
2026-05-07 17:21 38.02621 -17.19495 32876 ft 426 kts 268°
2026-05-07 17:21 38.02639 -17.27002 32877 ft 425 kts 268°
2026-05-07 17:22 38.02650 -17.34502 32860 ft 425 kts 268°
2026-05-07 17:22 38.02653 -17.41947 32863 ft 425 kts 269°
2026-05-07 17:23 38.02655 -17.49424 32866 ft 423 kts 269°
2026-05-07 17:23 38.02655 -17.56889 32868 ft 423 kts 268°
2026-05-07 17:24 38.02642 -17.64307 32859 ft 423 kts 268°
2026-05-07 17:24 38.02632 -17.71777 32845 ft 424 kts 268°
2026-05-07 17:25 38.02620 -17.79244 32858 ft 423 kts 269°
2026-05-07 17:25 38.02606 -17.86692 32845 ft 422 kts 269°
2026-05-07 17:26 38.02576 -17.94123 32840 ft 421 kts 269°
2026-05-07 17:26 38.02538 -18.01496 32845 ft 421 kts 269°
2026-05-07 17:27 38.02506 -18.08910 32829 ft 420 kts 269°
2026-05-07 17:27 38.02474 -18.16309 32833 ft 419 kts 269°
2026-05-07 17:28 38.02430 -18.23682 32845 ft 417 kts 269°
2026-05-07 17:28 38.02377 -18.30988 32825 ft 417 kts 269°
2026-05-07 17:29 38.02318 -18.38333 32816 ft 416 kts 269°
2026-05-07 17:29 38.02262 -18.45670 32810 ft 416 kts 269°
2026-05-07 17:30 38.02210 -18.52991 32830 ft 414 kts 269°
2026-05-07 17:30 38.02146 -18.60244 32817 ft 414 kts 269°
2026-05-07 17:31 38.02074 -18.67531 32815 ft 413 kts 269°
2026-05-07 17:31 38.01993 -18.74809 32816 ft 413 kts 269°
2026-05-07 17:32 38.01909 -18.82082 32800 ft 412 kts 269°
2026-05-07 17:32 38.01826 -18.89292 32788 ft 412 kts 269°
2026-05-07 17:33 38.01743 -18.96559 32791 ft 412 kts 269°
2026-05-07 17:33 38.01651 -19.03825 32777 ft 413 kts 269°
2026-05-07 17:34 38.01549 -19.11104 32767 ft 413 kts 269°
2026-05-07 17:34 38.01442 -19.18328 32785 ft 412 kts 269°
2026-05-07 17:35 38.01345 -19.25569 32791 ft 410 kts 269°
2026-05-07 17:35 38.01242 -19.32787 32780 ft 409 kts 269°
2026-05-07 17:36 38.01129 -19.39992 32767 ft 408 kts 269°
2026-05-07 17:36 38.01011 -19.47186 32767 ft 408 kts 269°
2026-05-07 17:37 38.00890 -19.54294 32773 ft 405 kts 269°
2026-05-07 17:37 38.00758 -19.61407 32772 ft 402 kts 269°
2026-05-07 17:38 38.00627 -19.68487 32757 ft 401 kts 269°
2026-05-07 17:38 38.00498 -19.75550 32753 ft 400 kts 269°
2026-05-07 17:39 38.00365 -19.82551 32746 ft 399 kts 268°
2026-05-07 17:39 38.00226 -19.89570 32750 ft 397 kts 268°
2026-05-07 17:40 38.00074 -19.96559 32744 ft 396 kts 268°
2026-05-07 17:40 37.99949 -20.03525 32740 ft 395 kts 269°
2026-05-07 17:41 37.99937 -20.10435 32723 ft 394 kts 270°
2026-05-07 17:41 37.99951 -20.17378 32722 ft 393 kts 270°
2026-05-07 17:42 37.99935 -20.24297 32717 ft 392 kts 269°
2026-05-07 17:42 37.99900 -20.31204 32716 ft 391 kts 269°
2026-05-07 17:43 37.99860 -20.38045 32738 ft 391 kts 269°
2026-05-07 17:43 37.99819 -20.44952 32691 ft 392 kts 269°
2026-05-07 17:44 37.99776 -20.51873 32678 ft 393 kts 269°
2026-05-07 17:44 37.99734 -20.58792 32679 ft 392 kts 269°
2026-05-07 17:45 37.99682 -20.65672 32685 ft 393 kts 269°
2026-05-07 17:45 37.99614 -20.72602 32695 ft 393 kts 269°
2026-05-07 17:46 37.99551 -20.79532 32712 ft 393 kts 269°
2026-05-07 17:46 37.99495 -20.86431 32692 ft 390 kts 269°
2026-05-07 17:47 37.99421 -20.93310 32688 ft 390 kts 269°
2026-05-07 17:47 37.99344 -21.00153 32684 ft 391 kts 269°
2026-05-07 17:48 37.99271 -21.07045 32694 ft 391 kts 269°
2026-05-07 17:48 37.99199 -21.13947 32697 ft 392 kts 269°
2026-05-07 17:49 37.99114 -21.20848 32702 ft 391 kts 269°
2026-05-07 17:49 37.99027 -21.27697 32716 ft 391 kts 269°
2026-05-07 17:50 37.98938 -21.34583 32715 ft 391 kts 269°
2026-05-07 17:50 37.98838 -21.41469 32718 ft 391 kts 269°
2026-05-07 17:51 37.98739 -21.48356 32722 ft 391 kts 269°
2026-05-07 17:51 37.98640 -21.55190 32732 ft 390 kts 269°
2026-05-07 17:52 37.98533 -21.62073 32733 ft 390 kts 269°
2026-05-07 17:52 37.98414 -21.68965 32744 ft 392 kts 269°
2026-05-07 17:53 37.98298 -21.75880 32727 ft 393 kts 269°
2026-05-07 17:53 37.98182 -21.82773 32738 ft 394 kts 269°
2026-05-07 17:54 37.98058 -21.89714 32746 ft 394 kts 269°
2026-05-07 17:54 37.97932 -21.96663 32744 ft 394 kts 269°
2026-05-07 17:55 37.97795 -22.03611 32741 ft 395 kts 269°
2026-05-07 17:55 37.97652 -22.10520 32757 ft 395 kts 269°
2026-05-07 17:56 37.97503 -22.17475 32751 ft 395 kts 269°
2026-05-07 17:56 37.97360 -22.24432 32759 ft 395 kts 269°
2026-05-07 17:57 37.97238 -22.30215 32759 ft 395 kts 269°
2026-05-07 17:57 37.97061 -22.38309 32769 ft 395 kts 269°
2026-05-07 17:58 37.96902 -22.45278 32772 ft 396 kts 269°
2026-05-07 17:58 37.96737 -22.52243 32787 ft 395 kts 269°
2026-05-07 17:59 37.96570 -22.59205 32789 ft 395 kts 269°
2026-05-07 17:59 37.96400 -22.66168 32787 ft 395 kts 269°
2026-05-07 18:00 37.96230 -22.73081 32793 ft 395 kts 269°
2026-05-07 18:00 37.96048 -22.80040 32789 ft 395 kts 270°
2026-05-07 18:01 37.95862 -22.86990 32848 ft 394 kts 270°
2026-05-07 18:01 37.95679 -22.93976 32784 ft 398 kts 269°
2026-05-07 18:02 37.95387 -23.04461 32778 ft 400 kts 269°
2026-05-07 18:03 37.95190 -23.11499 32767 ft 400 kts 270°
2026-05-07 18:03 37.94989 -23.18528 32794 ft 399 kts 270°
2026-05-07 18:04 37.94780 -23.25493 32804 ft 398 kts 270°
2026-05-07 18:04 37.94559 -23.32490 32811 ft 397 kts 270°
2026-05-07 18:05 37.94350 -23.39478 32808 ft 397 kts 270°